Header for Extended Forecast Station List Page

Search by: ID | Name | Date | Parm | Value | Avg | % Avg
Sort by: ID | Name | Date | Parm | Value | Avg | % Avg

Enter search or view all records.

Click on id for station plot
#IDNameDateParmValueAvg% Avg
0LYDM8KOOTENAI-LIBBY DAM02-18-2020INFLOW (KAF)36233559102
1LEOI1KOOTENAI-AT LEONIA02-18-2020DISCHARGE (KAF)2924367480
2BFEI1KOOTENAI-AT BONNERS FERRY02-18-2020STAGE (FT)MMM
3FCFM8NF FLATHEAD-NEAR COLUMBIA FALLS02-18-2020DISCHARGE (KAF)12631135111
4WGCM8MF FLATHEAD-NEAR WEST GLACIER02-18-2020DISCHARGE (KAF)12571103114
5HHWM8SF FLATHEAD-HUNGRY HORSE DAM02-18-2020INFLOW (KAF)16581478112
6CFMM8FLATHEAD-AT COLUMBIA FALLS02-18-2020DISCHARGE (KAF)37703144120
7DLGM8CLARK FORK-AT DEER LODGE02-18-2020DISCHARGE (KAF)8181100
8DRMM8CLARK FORK-NR DRUMMOND02-18-2020DISCHARGE (KAF)279MM
9RCCM8ROCK CREEK-NEAR CLINTON02-18-2020DISCHARGE (KAF)203184110
10BONM8BLACKFOOT-NEAR BONNER02-18-2020DISCHARGE (KAF)733615119
11ABOM8CLARK FORK-ABOVE MISSOULA02-18-2020DISCHARGE (KAF)12601123112
12BITM8BITTERROOT-NEAR MISSOULA02-18-2020DISCHARGE (KAF)956918104
13BELM8CLARK FORK-BELOW MISSOULA02-18-2020DISCHARGE (KAF)22172060108
14STRM8ST. REGIS-NEAR ST. REGIS02-18-2020DISCHARGE (KAF)21623393
15SRGM8CLARK FORK-AT ST REGIS02-18-2020DISCHARGE (KAF)2744281098
16KERM8FLATHEAD-KERR DAM02-18-2020INFLOW (KAF)43463990109
17NOXM8CLARK FORK-NOXON RAPIDS DAM02-18-2020INFLOW (KAF)6581730590
18CABI1CLARK FORK-CABINET GORGE DAM02-18-2020INFLOW (KAF)7268766195
19PRTI1PRIEST-NEAR PRIEST RIVER02-18-2020DISCHARGE (KAF)809697116
20ALFW1PEND OREILLE-ALBENI FALLS DAM02-18-2020INFLOW (KAF)8784925495
21HOPI1PEND OREILLE-PEND OREILLE LAKE NR HOPE02-18-2020LAKE ELEVATION (FT)MMM
22COEI1COEUR D ALENE-COEUR D ALENE LAKE02-18-2020INFLOW (KAF)29732805106
23SPOW1SPOKANE-AT SPOKANE02-18-2020DISCHARGE (KAF)2828MM
24LLKW1SPOKANE-AT LONGLAKE02-18-2020INFLOW (KAF)3171338194
25SATI1ST MARIES-NEAR SANTA02-18-2020DISCHARGE (KAF)163151108
26SJMI1ST JOE-AT ST MARIES02-18-2020STAGE (FT)MMM
27CIBW1COLUMBIA-AT INTL BOUNDARY02-18-2020DISCHARGE (KAF)23924MM
28LAUW1KETTLE-AT LAURIER02-18-2020DISCHARGE (KAF)19051417134
29GCDW1COLUMBIA-GRAND COULEE DAM02-18-2020INFLOW (KAF)291812985698
30CHJW1COLUMBIA-CHIEF JOSEPH DAM02-18-2020INFLOW (KAF)3172427500115
31TONW1OKANOGAN-NEAR TONASKET02-18-2020DISCHARGE (KAF)12081121108
32PATW1METHOW-NEAR PATEROS02-18-2020DISCHARGE (KAF)676621109
33WELW1COLUMBIA-WELLS DAM02-18-2020INFLOW (KAF)3358529314115
34CHDW1CHELAN-LAKE CHELAN DAM02-18-2020INFLOW (KAF)814685119
35RRHW1COLUMBIA-ROCKY REACH DAM02-18-2020INFLOW (KAF)3420029776115
36ARDW1ENTIAT-NEAR ARDENVOIR02-18-2020DISCHARGE (KAF)138135102
37PESW1WENATCHEE-AT PESHASTIN02-18-2020DISCHARGE (KAF)11331054107
38WANW1COLUMBIA-WANAPUM DAM02-18-2020INFLOW (KAF)3531331503112
39PRWW1COLUMBIA-PRIEST RAPIDS DAM02-18-2020INFLOW (KAF)3530632011110
40KEDW1YAKIMA-KEECHELUS LAKE02-18-2020INFLOW (KAF)124104119
41KADW1KACHESS-KACHESS DAM02-18-2020INFLOW (KAF)11499115
42EASW1YAKIMA-AT EASTON02-18-2020DISCHARGE (KAF)127100127
43CLUW1CLE ELUM-CLE ELUM LAKE02-18-2020INFLOW (KAF)355309115
44TNAW1TEANAWAY-BELOW FORKS02-18-2020DISCHARGE (KAF)157132119
45UMTW1YAKIMA-AT UMTANUM02-18-2020DISCHARGE (KAF)697624112
46BUDW1BUMPING-BUMPING LAKE DAM02-18-2020INFLOW (KAF)11992129
47CLFW1NACHES-NEAR CLIFFDEL02-18-2020DISCHARGE (KAF)399314127
48RILW1TIETON-RIMROCK LAKE NEAR RIMROCK02-18-2020INFLOW (KAF)174153113
49NACW1NACHES-NEAR NACHES02-18-2020DISCHARGE (KAF)600400150
50PARW1YAKIMA-NEAR PARKER02-18-2020DISCHARGE (KAF)829645129
51KIOW1YAKIMA-AT KIONA02-18-2020DISCHARGE (KAF)10831023106
52IPDI1HENRYS FORK-ISLAND PARK DAM02-18-2020INFLOW (KAF)194176110
53CHEI1FALL RIVER-NEAR CHESTER02-18-2020DISCHARGE (KAF)318281113
54ANTI1HENRYS FORK-AT ST. ANTHONY02-18-2020DISCHARGE (KAF)649594109
55TEAI1TETON-NEAR ST. ANTHONY02-18-2020DISCHARGE (KAF)306246124
56REXI1HENRYS FORK-AT REXBURG02-18-2020DISCHARGE (KAF)789693114
57JLKW4SNAKE-JACKSON LAKE AT DAM02-18-2020INFLOW (KAF)545514106
58JKSW4SNAKE-NEAR JACKSON02-18-2020DISCHARGE (KAF)1170932126
59ALPW4SNAKE-NEAR ALPINE02-18-2020DISCHARGE (KAF)14891232121
60PLDI1SF SNAKE-PALISADES DAM02-18-2020INFLOW (KAF)22161907116
61HEII1SNAKE-NEAR HEISE02-18-2020DISCHARGE (KAF)26981861145
62RIDI1WILLOW CREEK-RIRIE DAM02-18-2020INFLOW (KAF)6443149
63SIFI1SNAKE-AB EAGLE ROCK NR IDAHO FALLS02-18-2020DISCHARGE (KAF)27881885148
64SHYI1SNAKE-NEAR SHELLEY02-18-2020DISCHARGE (KAF)26691875142
65SNAI1SNAKE-AT BLACKFOOT02-18-2020DISCHARGE (KAF)23791624146
66BFTI1SNAKE-NEAR BLACKFOOT02-18-2020DISCHARGE (KAF)23461606146
67PIHI1PORTNEUF-AT POCATELLO02-18-2020DISCHARGE (KAF)8510185
68AFRI1SNAKE-AMERICAN FALLS RESERVOIR02-18-2020INFLOW (KAF)29342277129
69MILI1SNAKE-AT MILNER02-18-2020DISCHARGE (KAF)54664784
70HOTI1BRUNEAU-NEAR HOT SPRINGS02-18-2020DISCHARGE (KAF)185164113
71SWAI1SNAKE-BELOW SWAN FALLS02-18-2020DISCHARGE (KAF)2288267985
72HWRI1BIG LOST-AT HOWELL RANCH NEAR CHILLY02-18-2020DISCHARGE (KAF)809683
73MACI1BIG LOST-MACKAY RESERVOIR NEAR MACKAY02-18-2020INFLOW (KAF)729775
74HALI1BIG WOOD-AT HAILEY02-18-2020DISCHARGE (KAF)12115877
75MAGI1BIG WOOD-MAGIC DAM02-18-2020INFLOW (KAF)11920658
76LWRI1LITTLE WOOD-LITTLE WOOD DAM02-18-2020INFLOW (KAF)386756
77OWYO3OWYHEE-OWYHEE DAM02-18-2020INFLOW (KAF)447361124
78ARAI1SF BOISE-ANDERSON RANCH DAM02-18-2020INFLOW (KAF)36943285
79LUCI1BOISE-LUCKY PEAK DAM02-18-2020INFLOW (KAF)991MM
80BIGI1BOISE-AT GLENWOOD BRIDGE02-18-2020DISCHARGE (KAF)352348101
81PARI1BOISE-NEAR PARMA02-18-2020DISCHARGE (KAF)39241894
82WRMO3MALHEUR-WARM SPRINGS DAM02-18-2020INFLOW (KAF)7971110
83BERO3MALHEUR-AGENCY VALLEY DAM02-18-2020INFLOW (KAF)445285
84BULO3BULLY CREEK-BULLY CREEK DAM02-18-2020INFLOW (KAF)128146
85CSDI1NF PAYETTE-CASCADE DAM02-18-2020INFLOW (KAF)42144096
86DEDI1DEADWOOD-NEAR LOWMAN02-18-2020INFLOW (KAF)9910396
87EMMI1PAYETTE-NEAR EMMETT02-18-2020DISCHARGE (KAF)842109577
88WSRI1WEISER-NEAR WEISER02-18-2020DISCHARGE (KAF)451436103
89WEII1SNAKE-AT WEISER02-18-2020DISCHARGE (KAF)4337533281
90BRNI1SNAKE-BROWNLEE DAM02-18-2020INFLOW (KAF)4848576684
91WHBI1SALMON-AT WHITEBIRD02-18-2020DISCHARGE (KAF)3710428487
92TRYO3GRANDE RONDE-TROY02-18-2020DISCHARGE (KAF)17221221141
93ANAW1SNAKE-NEAR ANATONE02-18-2020DISCHARGE (KAF)104621225885
94ORFI1CLEARWATER-AT OROFINO02-18-2020DISCHARGE (KAF)46904028116
95DWRI1NF CLEARWATER-DWORSHAK DAM02-18-2020INFLOW (KAF)27912527110
96SPDI1CLEARWATER-AT SPALDING02-18-2020DISCHARGE (KAF)68056310108
97LGDW1SNAKE-LOWER GRANITE DAM02-18-2020INFLOW (KAF)172671856493
98LGSW1SNAKE-LITTLE GOOSE DAM02-18-2020INFLOW (KAF)172671860293
99LMNW1SNAKE-LOWER MONUMENTAL DAM02-18-2020INFLOW (KAF)174431881293
100IHDW1SNAKE-ICE HARBOR DAM02-18-2020INFLOW (KAF)174431867793
101TCHW1WALLA WALLA-NEAR TOUCHET02-18-2020DISCHARGE (KAF)271193141
102MCDW1COLUMBIA-MCNARY DAM02-18-2020INFLOW (KAF)5397352823102
103GIBO3UMATILLA-NEAR GIBBON02-18-2020DISCHARGE (KAF)11783140
104PDTO3UMATILLA-AT PENDLETON02-18-2020DISCHARGE (KAF)274188146
105MYKO3MCKAY CREEK-NEAR PILOT ROCK02-18-2020DISCHARGE (KAF)5936164
106UMAO3UMATILLA-NEAR UMATILLA02-18-2020DISCHARGE (KAF)291149196
107MONO3NF JOHN DAY-AT MONUMENT02-18-2020DISCHARGE (KAF)697625112
108SERO3JOHN DAY-AT SERVICE CK02-18-2020DISCHARGE (KAF)953901106
109JDAO3COLUMBIA-JOHN DAY DAM02-18-2020INFLOW (KAF)5651155399102
110MODO3DESCHUTES-AT MOODY NR BIGGS02-18-2020DISCHARGE (KAF)1394153891
111TDAO3COLUMBIA-THE DALLES DAM02-18-2020INFLOW (KAF)5689253399107
112PITW1KLICKITAT-NEAR PITT02-18-2020DISCHARGE (KAF)48853092
113HODO3HOOD-NEAR TUCKER BRIDGE02-18-2020DISCHARGE (KAF)27027499
114UNDW1WHITE SALMON-NEAR UNDERWOOD02-18-2020DISCHARGE (KAF)33835795
115BONO3COLUMBIA-BONNEVILLE DAM02-18-2020INFLOW (KAF)5797055806104